{"data":{"norad_id":50202,"intl_designator":"2021-125AY","name":"STARLINK-3256","alt_names":[],"object_type":"PAYLOAD","status":"ACTIVE","operator":null,"country":"US","launch_date":"2021-12-18","launch_site_code":"AFWTR","launch_vehicle":null,"mission":null,"orbit_class":"UNKNOWN","rcs_meters":null,"size_class":null,"mass_kg":null,"dimensions":null,"purposes":["comms"],"wikipedia_slug":null,"has_3d_model":false,"image_url":null,"decayed_at":null,"tle_current":{"epoch":"2026-05-25T00:44:05.809920Z","epoch_age_seconds":66400,"freshness":"FRESH","line1":"1 50202U 21125AY  26145.03062280  .00001603  00000+0  11878-3 0  9996","line2":"2 50202  53.2158 256.4104 0001286  99.1464 260.9674 15.08835575248259","mean_motion":15.08835575,"eccentricity":0.0001286,"inclination_deg":53.2158,"raan_deg":256.4104,"arg_perigee_deg":99.1464,"mean_anomaly_deg":260.9674,"bstar":0.00011878,"rev_number":24825,"period_min":95.43783456988,"perigee_km":538.86727329451,"apogee_km":540.64655560931,"semimajor_km":6917.8939144519,"source":"CELESTRAK","updated_at":"2026-05-25T13:38:16.873160Z"}}}